Tracking 28096 objects as of 29-Sep-2023
HD Live streaming from Space Station
objects crossing your sky now

SL-8 DEB *

Track SL-8 DEB * now!
10-day predictions


NORAD ID: 13499
Int'l Code: 1976-069D
Perigee: 704.1 km
Apogee: 726.2 km
Inclination: 74.1 °
Period: 98.9 minutes
Semi major axis: 7086 km
RCS: 0.0077 m2 (small)
Launch date: July 15, 1976
Source: Commonwealth of Independent States (former USSR) (CIS)
Launch site: PLESETSK MISSILE AND SPACE COMPLEX (PKMTR)

Note: This is SATELLITE DEBRIS
Your satellite tracking list
Your tracking list is empty




NASA's NSSDC Master Catalog

Two Line Element Set (TLE):
1 13499U 76069D   23271.88125817  .00003669  00000-0  84903-3 0  9990
2 13499  74.0563  57.5557 0015535 189.7596 325.0054 14.55418360273234
Source of the keplerian elements: AFSPC